AAL871 KMIA-MHRO

Flight info

Callsign AAL871
Flight time 1h 45m
Altitude 38000
Route MAYNR3 FUNDI UM335 ALVEK UZ637 PABEL UL471 GABIX GABIX1A
Aircraft B739/M-SDE2E3FGHIRWXY/LB1

Departure

Time 2026-04-24 14:10
Airport Miami International Airport (KMIA)

Arrival

Time 2026-04-24 15:56
Airport Juan Manuel Gálvez International Airport (MHRO)
Time Latitude Longitude Altitude Speed Heading
2026-04-24 13:36 25.79785 -80.27151 20 ft 0 kts 348°
2026-04-24 13:59 25.79766 -80.27148 19 ft 4 kts
2026-04-24 14:00 25.79742 -80.27155 21 ft 4 kts 44°
2026-04-24 14:00 25.79733 -80.27171 21 ft 0 kts 87°
2026-04-24 14:03 25.79733 -80.27164 21 ft 3 kts 87°
2026-04-24 14:03 25.79739 -80.27118 18 ft 9 kts 69°
2026-04-24 14:03 25.79791 -80.27052 21 ft 14 kts 43°
2026-04-24 14:04 25.79871 -80.26992 21 ft 14 kts 21°
2026-04-24 14:04 25.79945 -80.27038 21 ft 13 kts 307°
2026-04-24 14:04 25.79996 -80.27119 21 ft 13 kts 292°
2026-04-24 14:04 25.80034 -80.27199 22 ft 12 kts 338°
2026-04-24 14:05 25.80077 -80.27274 21 ft 14 kts 270°
2026-04-24 14:05 25.80074 -80.27408 18 ft 22 kts 266°
2026-04-24 14:05 25.80065 -80.27604 15 ft 27 kts 267°
2026-04-24 14:05 25.80057 -80.27804 14 ft 25 kts 268°
2026-04-24 14:06 25.80050 -80.27989 10 ft 23 kts 267°
2026-04-24 14:06 25.80042 -80.28165 13 ft 22 kts 267°
2026-04-24 14:06 25.80035 -80.28337 14 ft 23 kts 268°
2026-04-24 14:06 25.80028 -80.28520 15 ft 25 kts 268°
2026-04-24 14:07 25.80022 -80.28703 21 ft 23 kts 268°
2026-04-24 14:07 25.80013 -80.28878 20 ft 22 kts 268°
2026-04-24 14:07 25.80006 -80.29048 19 ft 22 kts 267°
2026-04-24 14:07 25.79999 -80.29215 21 ft 22 kts 267°
2026-04-24 14:08 25.79992 -80.29394 16 ft 24 kts 267°
2026-04-24 14:08 25.79984 -80.29581 12 ft 24 kts 267°
2026-04-24 14:08 25.79977 -80.29759 13 ft 23 kts 267°
2026-04-24 14:08 25.79974 -80.29932 10 ft 22 kts 276°
2026-04-24 14:09 25.80010 -80.30088 14 ft 15 kts 286°
2026-04-24 14:09 25.80070 -80.30109 13 ft 12 kts 65°
2026-04-24 14:09 25.80076 -80.30003 11 ft 17 kts 88°
2026-04-24 14:09 25.80089 -80.29696 13 ft 69 kts 87°
2026-04-24 14:10 25.80107 -80.29253 19 ft 103 kts 87°
2026-04-24 14:10 25.80163 -80.27907 22 ft 154 kts 88°
2026-04-24 14:10 25.80221 -80.26693 334 ft 161 kts 87°
2026-04-24 14:10 25.80066 -80.25443 646 ft 167 kts 120°
2026-04-24 14:11 25.79214 -80.24543 1019 ft 168 kts 142°
2026-04-24 14:11 25.78307 -80.23747 1496 ft 169 kts 138°
2026-04-24 14:11 25.76421 -80.21880 2135 ft 196 kts 137°
2026-04-24 14:12 25.75365 -80.20818 2343 ft 216 kts 137°
2026-04-24 14:12 25.74128 -80.19740 2534 ft 239 kts 154°
2026-04-24 14:12 25.72487 -80.19150 2902 ft 255 kts 167°
2026-04-24 14:12 25.70699 -80.19004 3600 ft 260 kts 178°
2026-04-24 14:13 25.68873 -80.18983 4403 ft 266 kts 178°
2026-04-24 14:13 25.67009 -80.19008 5171 ft 271 kts 185°
2026-04-24 14:13 25.65120 -80.19262 5797 ft 275 kts 188°
2026-04-24 14:13 25.63221 -80.19555 6488 ft 277 kts 188°
2026-04-24 14:14 25.61362 -80.20088 7132 ft 277 kts 208°
2026-04-24 14:14 25.59698 -80.21131 7906 ft 275 kts 212°
2026-04-24 14:14 25.56334 -80.23301 9444 ft 281 kts 212°
2026-04-24 14:15 25.54658 -80.24376 10208 ft 283 kts 212°
2026-04-24 14:15 25.52896 -80.25503 10462 ft 304 kts 212°
2026-04-24 14:15 25.51000 -80.26711 10632 ft 325 kts 212°
2026-04-24 14:15 25.48984 -80.27991 10900 ft 341 kts 211°
2026-04-24 14:16 25.46902 -80.29307 11442 ft 346 kts 211°
2026-04-24 14:16 25.44801 -80.30632 12113 ft 348 kts 211°
2026-04-24 14:16 25.42686 -80.31965 12804 ft 351 kts 212°
2026-04-24 14:17 25.38410 -80.34659 14117 ft 357 kts 212°
2026-04-24 14:17 25.36241 -80.36025 14741 ft 360 kts 212°
2026-04-24 14:17 25.31839 -80.38796 15996 ft 367 kts 212°
2026-04-24 14:18 25.29613 -80.40197 16613 ft 370 kts 212°
2026-04-24 14:18 25.27369 -80.41608 17227 ft 373 kts 212°
2026-04-24 14:18 25.25101 -80.43034 17838 ft 376 kts 212°
2026-04-24 14:18 25.22771 -80.44388 18401 ft 382 kts 205°
2026-04-24 14:19 25.21105 -80.45034 18721 ft 386 kts 200°
2026-04-24 14:19 25.17612 -80.46142 19365 ft 392 kts 199°
2026-04-24 14:19 25.14970 -80.46943 19852 ft 396 kts 199°
2026-04-24 14:19 25.12304 -80.47764 20340 ft 399 kts 199°
2026-04-24 14:20 25.09655 -80.48598 20832 ft 403 kts 200°
2026-04-24 14:20 25.06952 -80.49467 21320 ft 406 kts 200°
2026-04-24 14:20 25.04231 -80.50351 21785 ft 409 kts 200°
2026-04-24 14:20 25.01448 -80.51259 22242 ft 413 kts 201°
2026-04-24 14:21 24.98722 -80.52150 22719 ft 415 kts 201°
2026-04-24 14:21 24.95944 -80.53059 23163 ft 419 kts 201°
2026-04-24 14:21 24.93143 -80.53975 23593 ft 422 kts 201°
2026-04-24 14:21 24.90296 -80.54905 23889 ft 428 kts 201°
2026-04-24 14:22 24.87427 -80.55840 24254 ft 431 kts 201°
2026-04-24 14:22 24.84566 -80.56807 24681 ft 429 kts 206°
2026-04-24 14:22 24.80060 -80.60734 25457 ft 414 kts 238°
2026-04-24 14:23 24.78458 -80.63412 25852 ft 415 kts 241°
2026-04-24 14:23 24.76946 -80.66084 26203 ft 417 kts 241°
2026-04-24 14:23 24.75416 -80.68810 26558 ft 420 kts 241°
2026-04-24 14:23 24.73868 -80.71547 26928 ft 423 kts 241°
2026-04-24 14:24 24.72299 -80.74289 27295 ft 425 kts 240°
2026-04-24 14:24 24.70711 -80.77040 27622 ft 427 kts 240°
2026-04-24 14:24 24.69106 -80.79805 27967 ft 430 kts 240°
2026-04-24 14:24 24.67492 -80.82578 28310 ft 432 kts 240°
2026-04-24 14:25 24.66394 -80.84463 28536 ft 434 kts 240°
2026-04-24 14:25 24.64232 -80.88173 28967 ft 437 kts 240°
2026-04-24 14:25 24.62585 -80.91000 29306 ft 439 kts 240°
2026-04-24 14:25 24.60934 -80.93832 29626 ft 442 kts 240°
2026-04-24 14:26 24.59254 -80.96667 29946 ft 445 kts 237°
2026-04-24 14:26 24.57059 -80.99110 30187 ft 458 kts 219°
2026-04-24 14:26 24.54243 -81.00784 30593 ft 464 kts 205°
2026-04-24 14:26 24.52151 -81.01494 30947 ft 466 kts 195°
2026-04-24 14:27 24.48914 -81.01792 31499 ft 468 kts 185°
2026-04-24 14:27 24.45709 -81.01763 32017 ft 465 kts 183°
2026-04-24 14:27 24.42438 -81.01677 32439 ft 463 kts 183°
2026-04-24 14:27 24.39219 -81.01588 32814 ft 462 kts 183°
2026-04-24 14:28 24.36058 -81.01519 33229 ft 459 kts 183°
2026-04-24 14:28 24.32879 -81.01468 33700 ft 455 kts 184°
2026-04-24 14:28 24.29723 -81.01432 34143 ft 452 kts 184°
2026-04-24 14:28 24.26560 -81.01405 34430 ft 452 kts 184°
2026-04-24 14:29 24.23419 -81.01382 34607 ft 454 kts 184°
2026-04-24 14:29 24.20255 -81.01360 34808 ft 455 kts 184°
2026-04-24 14:29 24.17079 -81.01336 35075 ft 455 kts 184°
2026-04-24 14:29 24.13914 -81.01310 35346 ft 454 kts 184°
2026-04-24 14:30 24.10749 -81.01284 35539 ft 455 kts 183°
2026-04-24 14:30 24.07568 -81.01258 35643 ft 459 kts 183°
2026-04-24 14:30 24.04376 -81.01231 35840 ft 459 kts 183°
2026-04-24 14:30 24.01180 -81.01204 36122 ft 458 kts 183°
2026-04-24 14:31 23.97990 -81.01156 36385 ft 458 kts 182°
2026-04-24 14:31 23.94799 -81.01042 36569 ft 459 kts 181°
2026-04-24 14:31 23.91631 -81.00897 36757 ft 460 kts 181°
2026-04-24 14:31 23.88431 -81.00741 36973 ft 460 kts 181°
2026-04-24 14:32 23.85231 -81.00588 37192 ft 460 kts 181°
2026-04-24 14:32 23.82029 -81.00441 37374 ft 460 kts 181°
2026-04-24 14:32 23.78827 -81.00299 37505 ft 462 kts 181°
2026-04-24 14:33 23.72354 -81.00025 37671 ft 467 kts 181°
2026-04-24 14:33 23.69109 -80.99889 37919 ft 466 kts 181°
2026-04-24 14:33 23.65866 -80.99752 38016 ft 467 kts 181°
2026-04-24 14:34 23.59356 -80.99478 38006 ft 467 kts 181°
2026-04-24 14:34 23.52886 -80.99205 38012 ft 464 kts 181°
2026-04-24 14:35 23.46435 -80.98933 37999 ft 462 kts 181°
2026-04-24 14:35 23.40066 -80.98666 38010 ft 460 kts 181°
2026-04-24 14:36 23.33651 -80.98397 38013 ft 460 kts 181°
2026-04-24 14:36 23.27237 -80.98128 38014 ft 461 kts 181°
2026-04-24 14:37 23.20804 -80.97858 38015 ft 463 kts 181°
2026-04-24 14:37 23.14346 -80.97585 38001 ft 465 kts 181°
2026-04-24 14:38 23.07905 -80.97314 38012 ft 467 kts 181°
2026-04-24 14:38 23.04680 -80.97414 37985 ft 461 kts 195°
2026-04-24 14:38 23.01687 -80.98484 38031 ft 449 kts 212°
2026-04-24 14:38 22.99101 -81.00327 38004 ft 442 kts 226°
2026-04-24 14:39 22.96971 -81.02700 38027 ft 438 kts 231°
2026-04-24 14:39 22.92871 -81.07607 38012 ft 440 kts 231°
2026-04-24 14:40 22.88720 -81.12523 38005 ft 442 kts 231°
2026-04-24 14:40 22.84536 -81.17402 37984 ft 442 kts 231°
2026-04-24 14:41 22.80340 -81.22266 38006 ft 441 kts 231°
2026-04-24 14:41 22.76150 -81.27121 37999 ft 440 kts 231°
2026-04-24 14:42 22.71969 -81.31964 38007 ft 439 kts 232°
2026-04-24 14:42 22.67815 -81.36773 38013 ft 441 kts 232°
2026-04-24 14:43 22.63635 -81.41608 38008 ft 443 kts 232°
2026-04-24 14:43 22.59428 -81.46497 38007 ft 445 kts 232°
2026-04-24 14:44 22.55207 -81.51405 37982 ft 446 kts 232°
2026-04-24 14:44 22.50962 -81.56332 37995 ft 447 kts 232°
2026-04-24 14:45 22.46722 -81.61247 37999 ft 447 kts 232°
2026-04-24 14:45 22.42476 -81.66166 37985 ft 447 kts 233°
2026-04-24 14:46 22.38239 -81.71070 37998 ft 446 kts 233°
2026-04-24 14:46 22.34001 -81.75978 37997 ft 447 kts 233°
2026-04-24 14:47 22.29764 -81.80894 37990 ft 447 kts 233°
2026-04-24 14:47 22.25549 -81.85783 37995 ft 448 kts 233°
2026-04-24 14:48 22.21304 -81.90701 37985 ft 448 kts 233°
2026-04-24 14:48 22.17046 -81.95629 37995 ft 448 kts 233°
2026-04-24 14:49 22.12786 -82.00554 37987 ft 449 kts 233°
2026-04-24 14:49 22.08523 -82.05478 37989 ft 449 kts 233°
2026-04-24 14:50 22.04260 -82.10397 37989 ft 449 kts 233°
2026-04-24 14:50 21.99993 -82.15317 37986 ft 449 kts 233°
2026-04-24 14:51 21.95717 -82.20242 37985 ft 449 kts 233°
2026-04-24 14:51 21.91449 -82.25152 37983 ft 448 kts 233°
2026-04-24 14:52 21.87192 -82.30046 37979 ft 448 kts 233°
2026-04-24 14:52 21.82935 -82.34936 37987 ft 447 kts 233°
2026-04-24 14:53 21.78706 -82.39789 37980 ft 447 kts 234°
2026-04-24 14:53 21.74449 -82.44672 37984 ft 448 kts 234°
2026-04-24 14:54 21.70172 -82.49573 37979 ft 450 kts 234°
2026-04-24 14:54 21.65897 -82.54504 37982 ft 451 kts 235°
2026-04-24 14:55 21.62373 -82.58653 37947 ft 453 kts 235°
2026-04-24 14:55 21.57402 -82.64513 37975 ft 454 kts 235°
2026-04-24 14:56 21.53133 -82.69527 37980 ft 456 kts 235°
2026-04-24 14:56 21.48844 -82.74553 37975 ft 456 kts 235°
2026-04-24 14:57 21.44551 -82.79579 37960 ft 457 kts 236°
2026-04-24 14:57 21.40283 -82.84571 37980 ft 457 kts 236°
2026-04-24 14:58 21.35987 -82.89592 37981 ft 457 kts 236°
2026-04-24 14:58 21.31708 -82.94589 37979 ft 458 kts 236°
2026-04-24 14:59 21.27392 -82.99624 37977 ft 458 kts 236°
2026-04-24 14:59 21.23086 -83.04641 37973 ft 458 kts 236°
2026-04-24 15:00 21.22028 -83.05873 37972 ft 458 kts 236°
2026-04-24 15:00 21.17713 -83.10899 37975 ft 458 kts 236°
2026-04-24 15:01 21.13385 -83.15930 37949 ft 458 kts 237°
2026-04-24 15:01 21.09063 -83.20951 37964 ft 458 kts 237°
2026-04-24 15:02 21.04763 -83.25947 37967 ft 459 kts 237°
2026-04-24 15:02 21.00402 -83.31007 37937 ft 460 kts 237°
2026-04-24 15:03 20.96815 -83.35197 37962 ft 459 kts 237°
2026-04-24 15:03 20.91774 -83.41104 37969 ft 460 kts 237°
2026-04-24 15:04 20.87478 -83.46132 37965 ft 461 kts 237°
2026-04-24 15:04 20.83150 -83.51187 37962 ft 461 kts 237°
2026-04-24 15:05 20.78808 -83.56253 37952 ft 461 kts 237°
2026-04-24 15:05 20.74473 -83.61307 37960 ft 461 kts 237°
2026-04-24 15:06 20.70131 -83.66365 37966 ft 462 kts 237°
2026-04-24 15:06 20.65789 -83.71417 37965 ft 461 kts 236°
2026-04-24 15:07 20.61446 -83.76467 37967 ft 461 kts 236°
2026-04-24 15:07 20.57102 -83.81514 37960 ft 462 kts 236°
2026-04-24 15:08 20.52755 -83.86560 37956 ft 462 kts 236°
2026-04-24 15:08 20.48439 -83.91566 37941 ft 461 kts 236°
2026-04-24 15:09 20.43895 -83.96443 37949 ft 473 kts 226°
2026-04-24 15:09 20.38577 -84.00619 37957 ft 476 kts 224°
2026-04-24 15:10 20.33195 -84.04722 37954 ft 475 kts 224°
2026-04-24 15:10 20.27842 -84.08850 37952 ft 474 kts 224°
2026-04-24 15:11 20.22513 -84.13000 37959 ft 474 kts 224°
2026-04-24 15:11 20.17190 -84.17157 37955 ft 474 kts 224°
2026-04-24 15:12 20.11880 -84.21301 37956 ft 474 kts 224°
2026-04-24 15:12 20.04796 -84.26821 37954 ft 474 kts 224°
2026-04-24 15:13 19.99480 -84.30957 37946 ft 473 kts 224°
2026-04-24 15:13 19.93309 -84.35753 37942 ft 472 kts 224°
2026-04-24 15:14 19.88895 -84.39183 37947 ft 472 kts 224°
2026-04-24 15:14 19.83594 -84.43298 37958 ft 472 kts 224°
2026-04-24 15:15 19.78287 -84.47413 37950 ft 472 kts 224°
2026-04-24 15:15 19.72978 -84.51527 37941 ft 472 kts 224°
2026-04-24 15:16 19.67680 -84.55630 37951 ft 471 kts 224°
2026-04-24 15:16 19.62385 -84.59725 37952 ft 471 kts 224°
2026-04-24 15:17 19.57080 -84.63825 37954 ft 471 kts 224°
2026-04-24 15:17 19.51785 -84.67915 37934 ft 471 kts 224°
2026-04-24 15:18 19.46489 -84.72001 37951 ft 471 kts 224°
2026-04-24 15:18 19.41193 -84.76085 37951 ft 471 kts 224°
2026-04-24 15:19 19.35888 -84.80172 37945 ft 471 kts 223°
2026-04-24 15:19 19.30587 -84.84252 37948 ft 471 kts 223°
2026-04-24 15:20 19.25280 -84.88334 37954 ft 471 kts 223°
2026-04-24 15:20 19.19981 -84.92406 37953 ft 471 kts 223°
2026-04-24 15:21 19.14704 -84.96458 37950 ft 471 kts 223°
2026-04-24 15:21 19.09398 -85.00529 37951 ft 471 kts 223°
2026-04-24 15:22 19.04089 -85.04599 37932 ft 471 kts 223°
2026-04-24 15:23 18.96138 -85.10687 37949 ft 470 kts 223°
2026-04-24 15:23 18.88192 -85.16765 37947 ft 470 kts 223°
2026-04-24 15:25 18.75841 -85.26199 37949 ft 470 kts 223°
2026-04-24 15:26 18.61755 -85.36935 37947 ft 468 kts 222°
2026-04-24 15:27 18.45931 -85.48971 37950 ft 467 kts 222°
2026-04-24 15:29 18.30105 -85.60980 37954 ft 467 kts 221°
2026-04-24 15:31 18.11624 -85.74970 37734 ft 471 kts 221°
2026-04-24 15:32 18.00989 -85.83002 36714 ft 470 kts 221°
2026-04-24 15:33 17.90356 -85.91023 35744 ft 473 kts 221°
2026-04-24 15:33 17.82305 -85.97087 35040 ft 476 kts 221°
2026-04-24 15:34 17.76891 -86.01162 33590 ft 481 kts 221°
2026-04-24 15:35 17.68809 -86.07231 31716 ft 469 kts 220°
2026-04-24 15:35 17.63542 -86.11184 30590 ft 460 kts 220°
2026-04-24 15:35 17.60952 -86.13129 30030 ft 456 kts 220°
2026-04-24 15:36 17.58378 -86.15060 29375 ft 453 kts 220°
2026-04-24 15:36 17.53302 -86.18867 28192 ft 444 kts 220°
2026-04-24 15:36 17.50806 -86.20739 27641 ft 439 kts 220°
2026-04-24 15:37 17.48334 -86.22591 27100 ft 435 kts 220°
2026-04-24 15:37 17.45885 -86.24426 26560 ft 431 kts 220°
2026-04-24 15:37 17.43451 -86.26249 26026 ft 428 kts 220°
2026-04-24 15:37 17.41044 -86.28052 25493 ft 425 kts 220°
2026-04-24 15:38 17.38647 -86.29847 24940 ft 423 kts 220°
2026-04-24 15:38 17.36258 -86.31635 24386 ft 421 kts 220°
2026-04-24 15:38 17.33882 -86.33413 23866 ft 419 kts 220°
2026-04-24 15:38 17.31517 -86.35182 23287 ft 418 kts 220°
2026-04-24 15:39 17.29186 -86.36924 22711 ft 415 kts 219°
2026-04-24 15:39 17.26849 -86.38671 22168 ft 412 kts 219°
2026-04-24 15:39 17.24522 -86.40410 21631 ft 408 kts 219°
2026-04-24 15:39 17.22221 -86.42127 21115 ft 405 kts 219°
2026-04-24 15:40 17.19814 -86.43646 20562 ft 407 kts 204°
2026-04-24 15:40 17.17141 -86.44596 20107 ft 404 kts 200°
2026-04-24 15:40 17.14472 -86.45496 19569 ft 402 kts 200°
2026-04-24 15:40 17.11817 -86.46393 19084 ft 399 kts 200°
2026-04-24 15:41 17.09194 -86.47289 18617 ft 395 kts 200°
2026-04-24 15:41 17.06614 -86.48180 18085 ft 386 kts 201°
2026-04-24 15:41 17.04094 -86.49057 17549 ft 378 kts 201°
2026-04-24 15:41 17.01613 -86.49926 17043 ft 375 kts 200°
2026-04-24 15:42 16.99146 -86.50792 16550 ft 373 kts 200°
2026-04-24 15:42 16.96689 -86.51655 16079 ft 370 kts 200°
2026-04-24 15:42 16.94260 -86.52509 15600 ft 367 kts 200°
2026-04-24 15:42 16.91843 -86.53359 15124 ft 365 kts 200°
2026-04-24 15:43 16.89444 -86.54201 14630 ft 364 kts 200°
2026-04-24 15:43 16.87049 -86.55043 14148 ft 362 kts 200°
2026-04-24 15:43 16.84663 -86.55881 13648 ft 361 kts 200°
2026-04-24 15:43 16.82317 -86.56704 13128 ft 359 kts 200°
2026-04-24 15:44 16.79958 -86.57531 12632 ft 356 kts 200°
2026-04-24 15:44 16.77587 -86.58363 12140 ft 354 kts 200°
2026-04-24 15:44 16.75290 -86.59168 11663 ft 351 kts 200°
2026-04-24 15:44 16.72982 -86.59977 11184 ft 349 kts 200°
2026-04-24 15:45 16.70678 -86.60784 10693 ft 348 kts 200°
2026-04-24 15:45 16.68405 -86.61580 10438 ft 339 kts 200°
2026-04-24 15:45 16.66192 -86.62355 10233 ft 330 kts 200°
2026-04-24 15:45 16.64054 -86.63103 10125 ft 318 kts 200°
2026-04-24 15:46 16.62012 -86.63817 10095 ft 304 kts 200°
2026-04-24 15:46 16.60044 -86.64506 9989 ft 293 kts 200°
2026-04-24 15:46 16.58155 -86.65166 9976 ft 279 kts 200°
2026-04-24 15:46 16.56327 -86.65806 9468 ft 281 kts 200°
2026-04-24 15:47 16.54472 -86.66456 9072 ft 283 kts 200°
2026-04-24 15:47 16.52636 -86.67099 8731 ft 278 kts 200°
2026-04-24 15:47 16.50841 -86.67726 8385 ft 265 kts 200°
2026-04-24 15:47 16.49127 -86.68325 8058 ft 255 kts 200°
2026-04-24 15:48 16.47470 -86.68904 7784 ft 247 kts 200°
2026-04-24 15:48 16.45857 -86.69468 7486 ft 243 kts 200°
2026-04-24 15:48 16.44266 -86.70024 7195 ft 240 kts 200°
2026-04-24 15:48 16.42692 -86.70575 6908 ft 237 kts 200°
2026-04-24 15:49 16.41132 -86.71120 6629 ft 234 kts 200°
2026-04-24 15:49 16.39614 -86.71650 6351 ft 232 kts 200°
2026-04-24 15:49 16.38092 -86.72182 6060 ft 230 kts 200°
2026-04-24 15:49 16.36584 -86.72709 5774 ft 227 kts 200°
2026-04-24 15:50 16.35088 -86.73231 5491 ft 226 kts 200°
2026-04-24 15:50 16.33608 -86.73747 5221 ft 224 kts 200°
2026-04-24 15:50 16.32140 -86.74259 5048 ft 219 kts 200°
2026-04-24 15:50 16.30649 -86.74556 4913 ft 224 kts 176°
2026-04-24 15:51 16.29205 -86.73913 4622 ft 232 kts 141°
2026-04-24 15:51 16.28063 -86.72755 4328 ft 226 kts 137°
2026-04-24 15:51 16.26966 -86.71606 4006 ft 221 kts 136°
2026-04-24 15:51 16.25893 -86.70489 3694 ft 216 kts 136°
2026-04-24 15:52 16.25207 -86.69717 3481 ft 215 kts 126°
2026-04-24 15:52 16.24836 -86.67767 3085 ft 211 kts 77°
2026-04-24 15:52 16.25356 -86.66372 2830 ft 202 kts 65°
2026-04-24 15:52 16.25947 -86.65074 2534 ft 196 kts 65°
2026-04-24 15:53 16.26519 -86.63815 2250 ft 189 kts 65°
2026-04-24 15:53 16.27076 -86.62590 2002 ft 187 kts 65°
2026-04-24 15:53 16.27627 -86.61372 1749 ft 183 kts 65°
2026-04-24 15:53 16.28150 -86.60213 1482 ft 171 kts 65°
2026-04-24 15:54 16.28636 -86.59133 1317 ft 163 kts 65°
2026-04-24 15:54 16.29114 -86.58069 1091 ft 161 kts 65°
2026-04-24 15:54 16.29585 -86.57020 911 ft 160 kts 65°
2026-04-24 15:54 16.30059 -86.55979 711 ft 158 kts 65°
2026-04-24 15:55 16.30521 -86.54945 472 ft 157 kts 66°
2026-04-24 15:55 16.30972 -86.53924 260 ft 154 kts 65°
2026-04-24 15:55 16.31423 -86.52917 30 ft 153 kts 66°
2026-04-24 15:55 16.31773 -86.52137 21 ft 65 kts 65°
2026-04-24 15:56 16.31947 -86.51749 21 ft 47 kts 65°
2026-04-24 15:56 16.32054 -86.51508 22 ft 32 kts 65°
2026-04-24 15:56 16.32149 -86.51409 23 ft 9 kts 43°
2026-04-24 15:56 16.32128 -86.51370 23 ft 9 kts 197°
2026-04-24 15:57 16.32082 -86.51453 23 ft 19 kts 243°
2026-04-24 15:57 16.32010 -86.51611 23 ft 29 kts 246°
2026-04-24 15:57 16.31947 -86.51751 23 ft 34 kts 245°
2026-04-24 15:57 16.31815 -86.52044 22 ft 33 kts 245°
2026-04-24 15:58 16.31720 -86.52253 24 ft 31 kts 244°
2026-04-24 15:58 16.31661 -86.52387 20 ft 28 kts 245°
2026-04-24 15:58 16.31630 -86.52508 19 ft 12 kts 304°
2026-04-24 15:58 16.31699 -86.52554 18 ft 11 kts 315°
2026-04-24 15:59 16.31701 -86.52616 19 ft 8 kts 251°
2026-04-24 15:59 16.31720 -86.52651 18 ft 5 kts 334°
2026-04-24 15:59 16.31739 -86.52661 18 ft 0 kts 334°